Location: Hertford
(51.8000°N, 0.0667°W)
Time: 15:15:42
(UTC+00:00)

Cosmos 1634 Rocket - Visible Passes

Search period start: 20 June 2021 00:00
Search period end: 30 June 2021 00:00
Orbit: 960 x 992 km, 82.9° (Epoch: 19 June)

Date Brightness Start Highest point End Pass type
(mag) Time Alt. Az. Time Alt. Az. Time Alt. Az.
20 Jun 5.6 01:38:26 10° NNW 01:43:01 22° W 01:47:36 10° SW visible
20 Jun 5.4 22:32:32 10° N 22:37:57 29° ENE 22:43:20 10° ESE visible
21 Jun 4.2 00:17:35 10° NNW 00:23:51 64° W 00:28:13 21° S visible
21 Jun 6.0 02:05:25 10° NW 02:07:58 13° WNW 02:10:32 10° W visible
21 Jun 6.3 21:15:20 10° NE 21:16:34 11° NE 21:17:50 10° ENE visible
21 Jun 4.7 22:57:47 10° N 23:03:50 45° ENE 23:08:51 15° SE visible
22 Jun 4.8 00:43:23 10° NNW 00:49:11 39° W 00:53:31 17° SSW visible
22 Jun 6.0 21:38:58 10° NNE 21:42:55 17° NE 21:46:50 10° E visible
22 Jun 4.2 23:23:12 10° N 23:29:33 72° ENE 23:34:09 20° SSE visible
23 Jun 5.5 01:09:27 10° NNW 01:14:21 24° W 01:18:49 12° SW visible
23 Jun 5.5 22:03:50 10° N 22:09:02 26° ENE 22:14:13 10° ESE visible
23 Jun 4.1 23:48:46 10° NNW 23:55:06 72° W 23:59:29 21° S visible
24 Jun 6.0 01:36:06 10° NW 01:39:21 15° WNW 01:42:37 10° WSW visible
24 Jun 4.9 22:29:02 10° N 22:34:59 40° ENE 22:40:09 13° SE visible
25 Jun 4.7 00:14:31 10° NNW 00:20:28 44° W 00:24:49 18° SSW visible
25 Jun 6.0 21:10:27 10° NNE 21:13:57 15° NE 21:17:27 10° E visible
25 Jun 4.3 22:54:25 10° N 23:00:44 64° ENE 23:05:29 18° SSE visible
26 Jun 5.4 00:40:30 10° NNW 00:45:41 27° W 00:50:09 13° SW visible
26 Jun 5.6 21:35:11 10° N 21:40:08 23° ENE 21:45:04 10° ESE visible
26 Jun 4.1 23:19:58 10° NNW 23:26:20 81° W 23:30:50 21° S visible
27 Jun 5.9 01:06:56 10° NW 01:10:44 17° WNW 01:14:31 10° WSW visible
27 Jun 5.0 22:00:19 10° N 22:06:08 36° ENE 22:11:32 12° SE visible
27 Jun 4.6 23:45:40 10° NNW 23:51:45 50° W 23:56:12 18° SSW visible
28 Jun 4.4 22:25:40 10° N 22:31:56 57° ENE 22:36:55 16° SSE visible
29 Jun 5.3 00:11:35 10° NNW 00:17:00 31° W 00:21:35 14° SW visible
29 Jun 5.7 21:06:33 10° N 21:11:13 21° ENE 21:15:51 10° ESE visible
29 Jun 4.0 22:51:10 10° N 22:57:33 90° E 23:02:18 19° S visible
